SCP
0 0 0 0 0 0 0 0 0 0 0 0 0 0 0 0 0 0 0 0 0 0 0 0 0 0 0 0 0 0 0 0 0 0 0 0 0 0
0 0 0 0 0 0 0 0 0 0 0 0 0 0 0 0 0 0 0 0 0 0 0 0 0 0 0 0 0 0 0 0 0 0 0 0 0 0
0 0 0 0 0 0 0 0 0 0 0 0 0 0 0 0 0 0 0 0 0 0 0 0 0 0 0 0 0 0 0 0 0 0 0 0 0 0
0 0 0 0 0 0 0 0 0 0 0 0 0 0 0 0 0 0 0 0 0 0 0 0 0 0 0 0 0 0 0 0 0 0 0 0 0 0
1 1 0 0 0 0 0 0 0 0 0 0 0 0 0 0 0 0 0 0 0 0 0 0 0 0 0 0 0 0 0 0 0 0 0 0 0 0
1 1 1 0 0 0 0 0 0 0 0 0 0 0 0 0 0 0 0 0 0 0 0 0 0 0 0 0 0 0 0 0 0 0 0 0 0 0
1 1 0 0 0 0 0 0 0 0 0 0 0 0 0 0 0 0 0 0 0 0 0 0 0 0 0 0 0 0 0 0 0 0 0 0 0 0
0 0 0 0 0 0 0 0 0 0 0 0 0 0 0 0 0 0 0 0 0 0 0 0 0 0 0 0 0 0 0 0 0 0 0 0 0 0
0 0 0 0 0 0 0 0 0 0 0 0 0 0 0 0 0 0 0 0 0 0 0 0 0 0 0 0 0 0 0 0 0 0 0 0 0 0
0 0 0 0 0 0 0 0 0 0 0 0 0 0 0 0 0 0 0 0 0 0 0 0 0 0 0 0 0 0 0 0 0 0 0 0 0 0
0 0 0 0 0 0 0 0 0 0 0 0 0 0 0 0 0 0 0 0 0 0 0 0 0 0 0 0 0 0 0 0 0 0 0 0 0 0
0 0 0 0 0 0 0 0 0 0 0 0 0 0 0 0 0 0 0 0 0 0 0 0 0 0 0 0 0 0 0 0 0 0 0 0 0 0
0 0 0 0 0 0 0 0 0 0 0 0 0 0 0 0 0 0 0 0 0 0 0 0 0 0 0 0 0 0 0 0 0 0 0 0 0 0
0 0 0 0 0 0 0 0 0 0 0 0 0 0 0 0 0 0 0 0 0 0 0 0 0 0 0 0 0 0 0 0 0 0 0 0 0 0
0 0 0 0 0 0 0 0 0 0 0 0 0 0 0 0 0 0 0 0 0 0 0 0 0 0 0 0 0 0 0 0 0 0 0 0 0 0
0 0 0 0 0 0 0 0 0 0 0 0 0 0 0 0 0 0 0 0 0 0 0 0 0 0 0 0 0 0 0 0 0 0 0 0 0 0
0 0 0 0 0 0 0 0 0 0 0 0 0 0 0 0 0 0 0 0 0 0 0 0 0 0 0 0 0 0 0 0 0 0 0 0 0 0
0 0 0 0 0 0 0 0 0 0 0 0 0 0 0 0 0 0 0 0 0 0 0 0 0 0 0 0 0 0 0 0 0 0 0 0 0 0
0 0 0 0 0 0 0 0 0 0 0 0 0 0 0 0 0 0 0 0 0 0 0 0 0 0 0 0 0 0 0 0 0 0 0 0 0 0
0 0 0 0 0 0 0 0 0 0 0 0 0 0 0 0 0 0 0 0 0 0 0 0 0 0 0 0 0 0 0 0 0 0 0 0 0 0
0 0 0 0 0 0 0 0 0 0 0 0 0 0 0 0 0 0 0 0 0 0 0 0 0 0 0 0 0 0 0 0 0 0 0 0 0 0
0 0 0 0 0 0 0 0 0 0 0 0 0 0 0 0 0 0 0 0 0 0 0 0 0 0 0 0 0 0 0 0 0 0 0 0 0 0
0 0 0 0 0 0 0 0 0 0 0 0 0 0 0 0 0 0 0 0 0 0 0 0 0 0 0 0 0 0 0 0 0 0 0 0 0 0
Wind_Speed
11 12 11 8 7 7 7 7 8 9 7 5 5 5 6 5 8 6 7 10 12 13 13 14 15 15 16 17 16 15 15 14 13 12 12 11 11 10
9 11 11 9 8 7 7 7 8 10 10 4 5 4 5 4 6 5 6 8 9 11 12 13 13 14 15 16 15 15 15 15 14 13 12 12 11 11
11 11 12 10 9 8 8 8 8 9 12 7 4 3 5 5 3 3 3 4 4 9 11 12 12 13 14 14 14 14 14 14 14 13 12 12 11 11
13 12 13 10 12 9 8 9 9 9 9 11 5 4 4 4 3 3 3 3 4 7 10 11 12 12 13 13 13 13 13 12 13 12 12 12 11 11
12 13 12 11 12 10 10 9 8 7 8 8 7 3 2 2 2 2 2 2 3 4 7 9 11 11 12 12 12 11 11 11 12 12 12 11 11 11
11 11 11 11 11 10 9 10 8 8 7 7 6 3 3 2 2 2 3 3 3 2 4 6 7 9 11 12 11 10 10 11 12 12 11 11 11 11
9 9 10 10 11 9 7 7 7 7 6 6 5 3 3 3 3 3 3 2 2 2 2 3 3 3 5 8 9 9 11 12 12 12 12 11 11 11
9 8 7 8 9 10 10 9 8 7 7 6 5 5 5 4 3 3 3 2 3 2 2 2 3 4 4 4 8 11 12 12 12 12 12 12 11 11
8 7 5 5 7 6 7 8 7 8 8 6 6 6 4 5 5 4 4 4 3 2 2 2 2 3 3 4 9 10 11 12 12 12 12 12 12 11
6 6 6 5 5 6 5 4 4 4 4 5 5 4 3 4 5 5 4 3 2 1 2 2 2 2 2 2 7 10 10 10 11 11 11 11 11 11
4 4 5 5 6 8 6 5 4 2 1 3 3 2 3 5 5 4 4 3 2 2 2 2 1 0 0 1 3 7 8 9 10 10 10 10 10 9
2 2 4 5 5 7 6 5 5 4 3 2 2 2 3 4 5 4 4 3 2 2 3 3 2 1 1 1 1 2 3 6 8 8 9 9 9 5
3 3 2 4 5 6 6 5 5 4 4 4 3 3 2 2 2 2 2 2 3 2 3 3 2 2 2 1 1 1 1 1 3 4 6 8 8 6
4 3 2 4 4 4 3 3 5 5 3 3 3 2 2 2 2 3 3 3 2 2 4 3 2 3 2 1 1 1 0 1 2 2 2 5 6 8
2 2 3 4 4 3 3 4 3 3 3 3 3 2 2 3 4 4 4 4 4 3 2 2 2 2 2 2 1 1 1 1 2 2 2 2 3 2
1 2 3 3 3 3 2 2 2 2 3 3 3 3 3 3 3 3 2 2 2 2 3 3 2 2 1 1 2 2 1 2 1 2 2 2 2 3
2 1 1 1 1 1 1 2 2 2 2 2 3 3 3 3 2 2 2 2 2 2 1 1 2 2 0 2 1 2 2 1 1 1 1 2 3 3
3 2 2 2 3 3 3 2 2 2 2 3 3 3 4 4 3 2 2 2 2 2 2 1 1 1 1 1 2 2 1 1 1 1 1 2 3 3
2 2 2 3 2 2 2 2 2 2 2 3 3 3 3 4 4 3 3 3 2 2 2 2 2 2 1 2 2 2 2 1 1 1 2 2 3 3
1 1 2 2 2 2 2 2 2 3 3 3 3 3 3 4 4 4 3 3 3 2 2 2 2 2 2 2 2 2 2 1 1 2 2 2 2 4
1 0 0 1 1 1 2 2 3 3 3 3 3 3 3 3 3 3 3 4 3 3 3 2 2 1 1 1 0 1 1 2 2 2 1 1 2 2
2 1 1 2 1 1 1 2 2 3 3 2 2 2 2 3 3 3 3 3 3 2 2 1 1 1 1 1 2 2 2 2 3 4 4 3 2 3
2 2 2 2 2 2 1 2 2 2 2 2 2 2 2 2 2 2 3 2 2 3 2 2 1 1 1 1 2 2 2 2 2 2 3 4 6 6
Wind_Direction
229 229 233 234 230 230 230 227 245 264 261 229 223 220 219 216 225 221 224 231 235 239 241 241 243 244 244 242 236 235 234 234 228 226 225 228 235 240
227 230 233 234 232 230 231 230 230 248 263 229 220 211 207 214 219 216 222 226 230 234 238 240 242 244 244 241 234 233 234 233 228 222 224 231 238 239
226 228 233 229 232 230 229 230 233 236 256 257 225 222 213 218 217 213 215 215 223 229 234 238 241 243 243 237 232 233 233 232 228 225 225 232 237 242
228 228 232 229 231 230 229 231 233 231 244 259 246 221 217 213 206 207 212 213 222 230 232 237 241 242 240 235 230 229 229 227 226 224 227 232 236 244
228 229 231 227 231 230 229 232 233 231 234 248 252 216 204 179 187 215 220 225 225 228 232 238 242 242 240 235 229 225 223 220 221 220 225 230 235 245
228 229 230 228 231 230 231 233 231 231 231 240 246 224 198 169 171 207 233 225 233 216 233 237 241 242 241 236 228 220 215 214 215 217 221 226 234 244
231 230 230 230 230 230 229 228 225 230 228 233 240 229 203 182 204 192 216 219 226 200 212 228 224 227 230 234 226 218 216 214 214 215 218 224 231 240
238 235 231 226 228 226 226 224 219 224 227 226 232 228 222 204 189 182 185 181 242 197 188 229 198 220 221 217 228 223 219 217 217 218 220 226 231 238
239 237 230 222 215 216 220 224 230 230 225 223 231 230 217 197 181 185 192 195 207 165 161 220 202 225 216 223 228 223 221 221 220 222 225 227 230 236
242 233 228 222 209 201 204 210 220 227 225 223 228 228 207 184 181 183 180 154 103 131 155 198 197 219 217 219 228 222 221 223 225 227 229 231 233 238
249 241 230 225 209 194 194 203 206 213 165 164 175 173 159 157 150 136 141 149 181 189 180 178 170 199 233 231 230 224 223 223 223 227 231 234 238 242
249 245 233 223 211 195 198 199 210 209 174 145 128 117 125 132 141 160 166 164 159 185 178 162 151 130 278 284 240 217 216 222 224 229 234 235 239 237
245 244 231 207 207 199 198 207 211 178 163 161 151 135 117 112 115 111 126 152 162 177 164 151 149 156 165 269 304 236 188 200 212 223 228 235 240 234
244 240 210 181 184 186 195 185 166 157 152 151 148 144 137 131 112 99 89 75 78 138 162 153 152 164 156 180 250 286 238 214 204 207 210 241 246 248
245 213 181 167 163 163 155 155 158 159 155 157 162 158 141 133 120 103 84 80 67 60 100 116 132 147 156 180 205 216 247 245 207 200 207 219 228 237
228 182 159 158 152 131 127 138 149 151 152 156 148 130 121 123 122 117 120 119 101 75 48 53 82 128 157 191 199 227 217 228 222 217 217 231 234 226
187 181 190 171 164 161 138 130 128 126 130 127 132 133 133 128 119 112 121 128 129 140 125 57 55 61 110 192 209 216 209 234 230 207 215 246 245 237
196 209 208 204 200 191 178 163 150 148 143 138 141 147 147 143 135 132 131 137 143 146 146 143 117 54 22 324 216 192 194 213 220 203 206 243 262 254
206 212 209 205 201 191 185 174 165 150 143 148 149 149 147 147 148 151 150 147 151 152 153 151 162 154 171 253 274 208 184 205 211 242 232 230 254 263
219 213 202 184 174 174 172 163 149 144 145 148 148 149 151 153 156 159 160 159 160 158 160 168 186 189 195 209 231 265 235 203 206 242 260 264 270 293
5 358 68 132 133 139 144 144 144 147 145 146 148 148 152 155 159 159 160 163 162 168 179 191 201 168 113 97 57 289 297 285 253 234 251 272 283 287
8 18 28 47 70 93 115 124 127 130 134 134 137 141 145 150 156 159 163 166 170 171 168 155 136 124 142 205 239 249 281 319 322 307 283 252 232 244
356 5 26 40 47 58 75 105 120 123 127 131 132 131 133 137 144 150 153 155 153 153 146 150 155 155 205 220 240 259 272 292 303 309 300 291 286 290